Location: Oulou
(10.7667°N, 12.5167°W)
Time: 11:42:45
(UTC+00:00)

Cosmos 2154 Rocket - Pass Details

Date: 20 September 2019
Orbit: 965 x 997 km, 82.9° (Epoch: 16 October)

Event Time Altitude Azimuth Distance (km) Brightness Sun altitude
Rises 19:47:36 0° 7° (N) 3,645 7.0 -15.5°
Reaches altitude 10° 19:50:12 10° 13° (NNE) 2,701 6.2 -16.2°
Maximum altitude 19:56:05 46° 86° (E) 1,272 4.2 -17.6°
Drops below altitude 10° 20:02:01 10° 158° (SSE) 2,719 6.1 -19.1°
Sets 20:04:38 0° 164° (SSE) 3,671 6.8 -19.7°
